Wind_Speed
9 9 10 11 12 13 12 11 12 13 14 15 19 19 20 22 22 22 23 24 24 25 29 32 35 34 33 33 32 32 32 34 33 34 32 31 32 33 31 28 28 29 19 17 17 15 17
8 9 10 11 12 12 13 14 15 16 17 17 17 21 22 22 22 23 23 23 24 25 28 30 35 33 34 35 34 33 34 35 35 34 35 32 32 34 32 29 25 26 22 18 13 14 15
8 9 9 10 12 12 13 15 17 18 19 19 19 21 22 23 23 23 22 23 24 25 28 29 34 33 33 34 35 34 35 37 37 36 36 35 34 35 34 31 28 25 25 19 15 11 10
8 9 11 12 13 13 15 16 17 19 20 21 20 20 23 23 23 23 22 21 23 29 27 27 32 33 32 34 34 35 37 37 37 37 37 36 34 32 31 33 30 27 21 19 15 7 10
11 11 12 13 15 16 16 19 18 20 21 23 24 24 23 24 25 24 23 23 24 25 26 28 30 33 31 32 35 33 35 37 38 38 39 38 34 34 34 30 31 28 23 17 16 11 8
12 13 14 16 17 17 18 18 22 22 22 23 25 27 26 26 26 27 25 25 23 24 29 27 30 32 30 31 33 33 33 34 36 38 38 37 33 33 32 32 31 28 23 17 14 12 7
14 14 17 19 21 22 23 20 20 21 22 22 23 26 28 29 29 32 27 25 25 24 28 29 29 30 31 31 32 32 31 33 34 37 37 37 34 32 34 33 32 30 25 20 13 8 4
16 17 20 21 20 21 23 22 21 20 20 21 21 23 26 29 29 30 29 30 24 27 25 30 32 28 29 30 31 31 31 32 33 33 35 37 34 34 33 34 33 30 27 21 14 9 3
19 17 16 19 21 20 22 23 20 23 23 24 24 24 27 29 28 31 34 32 25 26 27 27 29 24 28 29 32 31 30 31 31 32 33 35 35 34 31 27 28 29 26 22 16 9 9
21 21 21 20 22 23 22 23 21 22 24 27 29 29 29 27 26 28 31 36 29 26 27 26 23 28 26 30 30 33 32 33 35 32 31 32 33 33 30 28 28 28 27 25 18 13 10
24 24 23 23 22 24 23 24 25 26 28 29 31 32 32 28 29 28 28 28 24 25 30 23 26 23 28 30 31 31 33 34 30 31 30 29 28 27 28 30 29 28 25 24 21 14 8
26 24 26 25 25 24 26 25 24 27 29 31 31 34 30 29 25 26 25 26 26 25 27 24 23 26 28 31 32 31 31 34 30 26 27 28 28 26 27 28 27 25 22 20 19 15 9
28 26 28 29 27 27 26 27 29 26 30 33 35 31 30 23 18 20 22 27 26 26 26 23 25 26 28 31 31 31 30 32 31 27 21 25 26 26 22 22 23 20 14 15 18 19 14
28 29 28 29 28 27 27 28 31 30 32 35 35 33 25 17 16 18 23 27 27 26 29 27 26 27 29 31 30 30 31 32 32 32 27 22 25 25 23 21 23 23 24 22 21 19 17
28 29 31 31 29 27 29 29 29 32 34 33 30 28 26 17 15 16 20 25 26 27 29 29 29 30 27 29 32 33 34 34 33 33 30 27 21 24 25 20 18 19 17 19 13 14 16
31 30 32 32 30 26 30 31 30 31 34 33 27 24 24 21 18 17 20 23 25 27 30 32 32 32 30 29 31 35 34 34 33 35 33 27 18 25 22 20 17 17 14 14 14 13 16
33 33 33 32 32 26 30 34 32 32 31 41 28 22 23 24 21 21 22 19 21 25 28 33 33 33 32 32 32 33 35 36 34 33 34 31 19 19 23 17 17 11 12 10 11 11 13
34 37 36 35 36 30 30 35 34 33 34 38 28 25 25 23 21 21 20 23 28 30 34 36 37 36 36 37 34 35 36 36 34 34 33 31 23 16 16 17 17 15 9 8 9 11 11
37 39 39 38 37 35 31 33 37 35 31 34 28 24 22 22 23 21 22 25 28 32 29 32 34 36 36 36 37 37 36 34 33 32 30 30 24 20 12 16 15 16 11 8 8 12 13
37 39 41 39 39 37 35 34 36 38 33 30 29 26 24 22 23 23 23 25 29 29 28 29 30 32 33 32 33 34 33 30 28 27 28 28 20 25 24 16 10 14 16 15 15 13 10
41 41 42 41 41 40 38 37 36 38 36 32 30 27 27 22 22 28 24 24 27 29 29 27 25 27 29 30 31 29 28 27 25 25 24 23 15 19 18 20 8 13 17 20 22 22 22
43 48 42 42 44 40 40 39 38 42 35 34 31 30 26 22 22 29 28 24 25 27 27 27 25 24 26 29 27 26 24 24 21 20 22 20 18 15 11 22 17 15 23 23 23 27 29
43 45 44 40 42 41 38 39 40 42 36 36 32 30 27 23 24 27 31 28 25 26 28 26 25 25 27 29 28 28 26 23 21 19 17 18 22 20 12 23 23 26 28 30 33 35 36
44 43 45 45 44 40 39 40 41 42 36 37 36 34 31 28 26 31 30 29 26 26 27 28 27 26 26 26 25 24 25 25 24 26 28 28 31 34 35 32 32 35 35 36 39 40 40
47 47 48 47 42 42 38 38 38 39 38 39 37 38 33 33 31 31 28 31 29 28 26 26 27 28 27 27 28 26 25 27 28 27 29 32 36 38 39 40 41 44 46 46 47 48 50
49 48 50 50 46 43 40 38 39 37 39 40 41 42 39 37 29 29 29 32 30 29 28 30 31 29 29 29 31 32 33 32 30 36 34 34 35 39 41 44 46 48 51 52 53 55 54
53 53 56 54 50 44 43 37 41 40 43 43 45 42 37 36 30 33 31 33 33 32 32 33 33 31 31 34 35 35 37 39 42 43 45 46 46 47 48 52 54 53 53 55 59 57 61
57 56 53 35 41 44 44 43 43 42 44 42 39 37 34 35 35 34 35 35 35 34 34 35 34 33 35 34 35 38 41 44 45 45 45 48 52 54 56 57 59 59 60 62 63 64 65
55 54 51 35 38 39 41 43 42 42 42 40 36 37 41 39 38 38 38 38 39 39 38 34 37 34 36 38 41 43 45 46 47 49 52 53 56 59 62 62 62 63 65 66 67 68 70
Wind_Direction
6 7 6 4 2 0 354 348 344 341 342 345 344 346 344 346 345 351 354 354 353 352 355 355 359 356 356 359 358 358 359 358 357 357 357 354 357 356 350 337 335 344 338 316 285 273 253
353 357 359 352 347 346 344 341 337 334 335 337 340 341 339 339 341 342 345 351 351 349 351 352 355 356 352 354 358 359 357 360 2 359 3 357 357 357 353 347 344 341 343 348 338 276 256
341 341 346 344 338 337 338 336 331 331 329 327 328 332 333 333 335 338 341 346 344 348 347 350 352 353 352 352 354 356 359 2 3 360 2 1 358 354 356 353 349 343 347 341 334 299 247
333 329 332 331 330 332 336 333 331 325 324 322 318 322 322 325 328 331 335 335 340 339 342 346 349 350 349 350 352 353 357 1 0 0 0 359 360 355 357 356 353 351 347 341 342 317 254
326 327 334 335 328 323 326 327 325 326 324 323 319 313 314 320 321 325 328 329 334 336 339 342 344 346 345 347 351 352 355 356 358 357 1 358 355 359 0 0 357 352 347 339 333 331 257
319 320 326 328 325 325 326 322 316 318 320 322 321 316 313 312 313 316 320 324 324 331 337 334 337 340 343 345 347 350 352 353 357 355 359 358 358 2 358 1 2 4 359 346 335 310 292
300 306 313 321 321 322 321 311 309 309 312 316 318 322 320 314 313 313 311 314 318 320 326 329 330 335 340 345 343 347 349 351 353 354 356 359 360 0 2 3 5 5 3 5 3 344 328
300 300 302 305 307 318 323 315 307 308 308 313 316 318 317 315 309 307 308 307 309 313 318 322 323 327 332 342 344 342 345 349 348 351 353 354 358 2 1 2 3 6 8 6 14 14 61
297 301 302 306 309 314 318 320 309 301 306 309 308 316 316 314 314 312 311 306 310 306 314 324 325 323 326 334 340 339 341 346 345 344 350 350 357 359 1 1 2 10 12 13 15 20 54
293 296 297 302 307 310 317 315 312 309 302 308 307 316 318 315 321 322 320 322 316 300 316 324 324 324 325 328 334 340 339 342 344 341 344 349 354 355 359 357 5 7 17 19 16 25 39
287 292 295 296 301 308 306 318 312 313 310 313 311 313 318 308 322 319 319 326 325 304 314 319 321 324 323 326 330 335 335 340 340 339 340 342 345 352 356 5 4 7 14 22 21 23 37
284 284 289 292 299 302 309 310 315 315 316 316 315 318 316 309 312 319 317 323 323 309 307 305 311 315 319 322 325 327 330 334 338 341 334 337 337 351 354 5 6 8 11 20 32 30 45
272 280 285 291 296 298 304 310 314 320 317 317 318 320 316 314 313 321 321 317 317 318 309 307 305 306 312 316 320 322 324 328 330 335 335 332 337 342 354 360 8 14 13 21 39 45 49
267 277 282 285 290 293 298 305 311 315 315 319 323 323 317 306 308 312 324 324 320 318 319 315 310 308 307 313 317 320 322 326 327 328 337 338 334 336 344 353 1 8 14 19 28 37 49
271 275 273 282 286 290 296 300 308 311 312 319 321 323 320 298 297 313 320 325 326 319 317 312 311 308 308 309 317 319 320 322 325 328 330 340 336 330 333 344 350 357 8 21 23 34 42
270 272 276 280 283 286 291 297 302 303 308 313 316 325 328 314 297 301 315 324 324 326 322 319 315 314 309 310 312 315 318 320 324 326 323 331 333 322 323 326 340 339 356 8 21 35 34
269 270 271 274 279 283 287 292 297 299 305 308 308 320 320 325 310 296 308 319 324 329 329 326 322 317 317 315 312 313 316 316 319 319 320 322 328 325 319 317 324 327 330 356 1 19 23
271 270 271 274 276 278 283 288 293 296 303 305 301 314 321 331 320 311 305 309 313 320 322 321 318 314 312 312 312 313 314 314 315 317 318 321 325 322 305 309 310 312 308 335 342 357 2
269 271 269 271 274 280 280 283 288 290 293 301 297 305 309 327 325 315 309 307 309 314 321 325 325 321 317 313 315 312 314 316 316 319 317 320 325 315 301 306 303 301 298 297 308 324 334
269 268 271 271 274 277 280 281 287 290 286 293 296 298 298 313 320 313 310 313 314 319 322 325 326 325 324 320 316 317 316 319 318 318 316 319 325 312 317 311 277 284 293 296 294 300 321
263 267 269 271 272 275 279 282 284 286 288 290 292 291 290 301 309 313 310 314 316 317 318 322 323 325 327 324 319 317 318 316 320 318 315 317 322 309 305 301 293 272 276 283 296 307 312
279 264 262 269 274 273 276 276 283 285 286 292 290 288 286 295 308 314 303 309 315 314 316 314 319 323 323 322 323 321 317 314 318 312 317 326 327 324 307 295 303 281 284 289 295 296 299
282 273 259 268 272 273 277 279 280 280 283 286 284 280 278 281 296 306 297 307 308 308 311 309 313 316 316 316 319 317 318 317 315 304 306 305 301 296 291 284 287 282 282 288 290 289 289
279 266 256 260 262 269 270 274 272 276 277 277 278 276 276 278 302 295 290 296 297 302 305 304 308 310 310 311 313 313 314 312 306 305 307 310 308 308 307 304 296 292 296 298 296 296 293
279 273 260 260 262 264 269 273 274 276 280 276 277 279 276 278 287 281 287 294 293 296 297 294 298 301 301 305 307 305 304 302 303 303 304 300 297 294 294 294 296 300 302 303 300 298 297
275 273 265 260 259 262 264 268 270 272 273 281 282 282 279 275 275 278 282 286 285 288 290 289 291 293 292 296 300 297 300 300 297 300 299 294 293 293 296 297 299 300 301 302 299 296 299
270 270 270 270 257 256 255 260 262 270 276 283 277 275 274 272 274 278 282 282 283 285 286 287 288 290 290 293 294 296 298 297 299 301 300 300 298 296 297 296 298 300 301 300 297 298 295
270 273 268 259 259 262 264 268 274 274 274 274 273 274 276 274 274 275 279 280 281 282 284 286 285 287 290 291 292 292 292 291 293 296 298 297 296 297 296 297 298 298 297 296 294 292 291
268 271 268 261 268 269 269 270 273 271 273 272 272 272 278 271 270 279 278 276 278 280 280 284 287 288 290 292 291 291 293 293 292 293 297 298 299 298 297 297 297 296 294 293 291 290 289
Height
5855 5854 5853 5852 5850 5849 5847 5845 5843 5841 5839 5837 5835 5832 5830 5826 5823 5819 5815 5812 5808 5804 5800 5795 5790 5785 5781 5776 5770 5763 5757 5751 5744 5736 5729 5721 5714 5705 5697 5689 5681 5673 5667 5662 5659 5657 5656
5855 5854 5854 5852 5851 5848 5846 5844 5842 5840 5838 5836 5833 5831 5828 5825 5822 5819 5815 5811 5807 5803 5798 5794 5790 5785 5780 5775 5768 5762 5756 5749 5742 5735 5727 5719 5711 5703 5695 5687 5680 5672 5665 5660 5656 5654 5654
5853 5853 5852 5851 5849 5847 5845 5844 5841 5839 5837 5834 5831 5829 5826 5823 5820 5817 5814 5810 5806 5802 5797 5793 5789 5784 5779 5774 5767 5761 5755 5748 5740 5733 5726 5718 5710 5702 5694 5686 5678 5671 5664 5659 5655 5653 5652
5852 5851 5850 5849 5847 5846 5845 5842 5840 5837 5835 5832 5829 5826 5823 5820 5817 5814 5811 5808 5805 5801 5796 5792 5788 5783 5778 5772 5766 5759 5752 5746 5740 5733 5725 5717 5710 5703 5694 5685 5677 5670 5665 5659 5655 5652 5651
5852 5850 5850 5848 5846 5845 5843 5840 5838 5837 5834 5831 5828 5826 5822 5819 5815 5812 5809 5806 5802 5799 5795 5790 5787 5782 5777 5771 5765 5759 5752 5745 5738 5731 5724 5716 5709 5702 5693 5686 5677 5669 5665 5659 5655 5652 5650
5850 5849 5848 5848 5845 5843 5841 5838 5836 5833 5830 5828 5827 5824 5820 5817 5814 5810 5806 5804 5800 5796 5793 5788 5785 5782 5777 5771 5764 5757 5752 5745 5739 5731 5724 5718 5709 5701 5695 5687 5679 5672 5666 5659 5655 5652 5648
5847 5846 5846 5845 5843 5841 5838 5835 5833 5830 5827 5825 5823 5820 5816 5813 5810 5807 5803 5801 5799 5795 5791 5787 5783 5778 5773 5768 5763 5757 5751 5745 5738 5731 5725 5718 5710 5702 5694 5687 5679 5671 5665 5659 5654 5652 5648
5845 5844 5843 5841 5839 5838 5835 5832 5830 5826 5824 5822 5818 5815 5811 5808 5804 5802 5799 5796 5793 5790 5788 5784 5780 5776 5772 5767 5761 5755 5750 5744 5737 5732 5725 5719 5711 5702 5695 5688 5681 5673 5666 5660 5656 5652 5649
5843 5841 5839 5838 5837 5835 5832 5829 5826 5823 5821 5818 5815 5811 5807 5804 5801 5799 5795 5791 5788 5786 5784 5781 5777 5773 5769 5766 5761 5755 5749 5743 5737 5730 5724 5718 5712 5704 5697 5691 5686 5676 5669 5663 5659 5655 5651
5840 5839 5837 5835 5834 5832 5829 5827 5824 5820 5817 5814 5810 5806 5803 5801 5798 5794 5790 5786 5783 5780 5780 5778 5774 5771 5766 5762 5758 5752 5746 5742 5735 5728 5723 5718 5712 5706 5700 5693 5686 5679 5672 5667 5663 5659 5658
5836 5835 5834 5832 5830 5828 5826 5823 5821 5818 5814 5810 5806 5802 5798 5795 5794 5790 5786 5783 5778 5776 5773 5773 5770 5766 5762 5759 5755 5750 5744 5741 5735 5728 5722 5718 5713 5708 5701 5694 5687 5683 5676 5671 5667 5664 5663
5831 5831 5829 5828 5827 5824 5822 5819 5817 5814 5810 5806 5801 5797 5793 5791 5788 5785 5781 5779 5776 5774 5770 5768 5765 5762 5760 5756 5751 5747 5742 5738 5735 5730 5722 5717 5711 5708 5700 5696 5690 5685 5681 5676 5672 5669 5667
5826 5825 5824 5823 5823 5821 5819 5815 5813 5810 5805 5801 5797 5792 5787 5785 5782 5780 5778 5775 5773 5770 5767 5764 5760 5757 5754 5751 5748 5744 5740 5735 5730 5727 5724 5717 5711 5706 5703 5699 5694 5690 5686 5681 5678 5674 5672
5820 5820 5818 5817 5817 5817 5815 5811 5808 5806 5801 5797 5792 5788 5783 5780 5778 5776 5774 5772 5768 5765 5762 5759 5755 5753 5750 5746 5744 5740 5736 5731 5726 5721 5718 5714 5709 5704 5701 5698 5693 5689 5686 5681 5678 5677 5677
5813 5813 5812 5811 5811 5810 5809 5806 5803 5801 5797 5793 5789 5785 5780 5776 5774 5771 5771 5768 5765 5761 5758 5755 5751 5748 5746 5742 5739 5735 5731 5727 5723 5718 5715 5711 5709 5703 5699 5697 5696 5692 5688 5686 5684 5681 5680
5807 5806 5806 5805 5804 5804 5804 5802 5799 5796 5793 5790 5785 5781 5776 5772 5770 5768 5766 5765 5760 5756 5753 5750 5747 5744 5740 5737 5734 5730 5726 5722 5719 5715 5710 5710 5708 5702 5700 5696 5696 5692 5692 5688 5687 5684 5680
5799 5799 5798 5798 5797 5797 5796 5795 5793 5790 5788 5784 5781 5777 5774 5769 5766 5765 5762 5759 5757 5753 5750 5748 5744 5740 5737 5733 5729 5725 5721 5717 5714 5710 5706 5703 5705 5702 5696 5695 5693 5693 5690 5689 5687 5686 5684
5792 5791 5792 5792 5791 5790 5790 5788 5787 5785 5783 5780 5776 5773 5771 5766 5764 5761 5758 5755 5754 5749 5746 5742 5739 5735 5732 5727 5724 5720 5716 5712 5709 5705 5702 5699 5699 5699 5696 5692 5690 5689 5689 5688 5686 5685 5683
5785 5784 5784 5783 5784 5783 5784 5781 5779 5778 5776 5775 5771 5768 5765 5762 5759 5756 5753 5751 5748 5745 5740 5736 5733 5730 5726 5722 5720 5715 5711 5708 5704 5702 5699 5695 5695 5693 5694 5692 5688 5686 5686 5685 5684 5682 5682
5776 5776 5776 5777 5776 5776 5776 5774 5772 5771 5769 5768 5766 5763 5760 5757 5753 5751 5748 5746 5744 5740 5735 5730 5727 5724 5721 5717 5713 5709 5706 5703 5700 5698 5695 5692 5693 5689 5687 5687 5687 5684 5682 5681 5681 5683 5684
5767 5768 5767 5767 5768 5768 5767 5765 5764 5763 5761 5760 5758 5756 5754 5751 5747 5747 5743 5739 5737 5735 5732 5726 5722 5719 5716 5713 5709 5705 5702 5698 5695 5692 5690 5689 5689 5686 5684 5681 5683 5682 5680 5677 5677 5678 5678
5758 5756 5757 5757 5758 5759 5759 5759 5755 5754 5753 5752 5750 5749 5747 5744 5741 5741 5739 5734 5731 5730 5727 5722 5718 5714 5711 5709 5706 5702 5700 5694 5693 5690 5687 5685 5684 5684 5683 5679 5680 5680 5675 5675 5675 5673 5670
5748 5747 5747 5748 5749 5749 5750 5749 5748 5746 5745 5744 5743 5742 5739 5736 5734 5733 5732 5729 5725 5724 5722 5717 5712 5709 5706 5704 5701 5698 5695 5691 5689 5686 5684 5681 5677 5676 5679 5674 5674 5673 5671 5670 5667 5666 5663
5739 5737 5737 5738 5738 5739 5740 5739 5739 5737 5737 5736 5734 5733 5731 5729 5726 5726 5724 5722 5718 5717 5715 5711 5708 5704 5702 5698 5696 5694 5691 5689 5685 5683 5681 5679 5675 5672 5670 5669 5667 5664 5664 5661 5659 5657 5654
5729 5728 5727 5726 5727 5728 5729 5729 5728 5727 5726 5725 5725 5724 5721 5721 5718 5718 5717 5715 5712 5709 5706 5704 5701 5697 5694 5693 5691 5689 5686 5684 5681 5679 5676 5672 5667 5663 5660 5657 5656 5654 5652 5649 5645 5643 5637
5718 5718 5717 5716 5716 5717 5717 5717 5718 5717 5716 5716 5715 5714 5712 5712 5711 5709 5707 5706 5704 5700 5698 5696 5693 5690 5687 5684 5683 5680 5678 5675 5674 5672 5669 5665 5661 5657 5653 5649 5646 5643 5639 5634 5630 5628 5624
5706 5707 5706 5704 5704 5706 5706 5706 5706 5707 5705 5705 5704 5703 5703 5702 5701 5700 5698 5697 5695 5692 5689 5687 5684 5682 5678 5677 5674 5671 5670 5666 5663 5660 5656 5653 5648 5645 5641 5635 5634 5629 5625 5620 5614 5615 5605
5693 5694 5694 5690 5693 5693 5694 5695 5696 5696 5695 5694 5694 5692 5693 5691 5690 5689 5687 5687 5685 5683 5681 5680 5677 5672 5669 5667 5665 5662 5660 5657 5654 5650 5645 5641 5636 5632 5626 5621 5619 5614 5610 5604 5598 5591 5589
5680 5681 5681 5678 5681 5682 5683 5684 5685 5684 5683 5684 5683 5683 5681 5680 5680 5679 5677 5675 5674 5672 5670 5668 5667 5663 5660 5658 5655 5650 5648 5644 5640 5636 5631 5626 5622 5617 5612 5605 5601 5596 5590 5585 5579 5573 5567